Theta_e
323 323 323 323 323 323 324 325 328 332 340 340 341 340 340 336 333 333 332 330 328 329 329 330 328 324 326 325 326 326 327 326 328 327 328 328 329 328 327 326 311 311 312
323 324 324 325 324 324 324 327 332 339 339 340 340 338 334 326 320 310 308 307 308 309 310 310 311 312 312 312 312 312 311 310 313 319 322 321 322 323 325 326 323 313 313
322 326 327 328 328 326 328 332 336 337 338 337 332 321 314 310 309 308 307 306 305 305 306 306 306 306 307 308 308 307 307 307 306 306 311 318 319 318 319 320 320 316 313
322 327 332 333 336 336 337 336 334 329 321 315 312 310 309 307 306 305 304 304 303 303 303 303 304 304 304 304 305 306 307 307 306 306 305 306 313 316 317 316 319 318 318
321 323 321 317 315 313 312 312 311 311 310 309 307 306 305 305 304 304 303 303 302 301 301 301 301 302 302 301 301 301 302 303 305 307 310 308 309 310 315 315 314 315 316
320 319 316 314 313 312 311 311 310 308 307 306 305 305 304 303 302 301 300 299 299 299 299 300 300 301 300 300 300 300 301 303 306 307 309 309 310 310 310 311 311 311 312
319 318 316 314 312 312 311 309 308 306 305 305 304 304 303 301 300 299 298 298 298 298 297 298 298 299 300 300 299 299 300 302 308 308 308 308 309 309 309 310 310 311 311
318 318 315 313 312 311 309 308 306 305 305 304 304 302 301 300 299 297 297 297 297 297 298 299 299 299 299 299 300 300 301 303 307 308 309 309 308 307 307 307 308 308 310
316 317 314 313 311 309 308 306 305 305 304 304 302 301 300 299 298 297 297 297 298 299 299 299 301 302 302 302 302 304 304 304 306 305 306 306 307 306 305 305 305 308 308
313 315 314 312 310 308 306 305 305 304 303 302 301 300 299 298 298 298 298 298 299 299 300 302 303 303 302 302 300 301 302 302 303 305 305 304 304 304 304 303 304 305 307
312 314 312 310 309 307 305 305 304 303 302 300 300 299 298 298 298 298 298 299 299 301 303 303 303 302 300 301 300 299 299 299 299 300 300 302 304 302 303 303 303 304 306
309 312 310 309 306 305 305 304 303 302 300 300 299 298 298 298 298 297 298 299 301 303 303 302 301 298 297 297 298 298 298 298 299 299 299 299 300 300 302 303 303 303 305
307 309 308 306 305 305 304 303 302 300 300 299 298 298 298 298 297 298 299 301 302 302 300 299 297 297 296 296 297 296 296 296 296 296 296 296 297 297 297 298 299 304 305
306 307 306 305 305 304 303 302 300 300 299 298 298 299 298 298 298 299 300 301 301 299 299 298 296 295 296 296 296 295 294 294 294 295 294 295 295 296 296 296 297 299 301
304 305 305 305 304 303 302 300 300 298 298 298 299 299 298 298 299 300 301 300 300 298 297 296 295 296 296 296 294 294 294 294 295 295 295 296 297 298 298 296 297 298 299
303 303 304 304 304 302 300 299 298 298 299 299 299 298 299 300 300 300 300 299 298 297 296 295 295 295 295 294 293 293 293 294 294 294 295 297 298 300 300 299 298 297 299
302 304 303 304 303 301 299 299 298 299 299 299 298 299 299 300 300 300 299 297 296 295 295 295 295 295 294 293 293 293 293 293 294 295 296 297 299 300 301 302 301 300 299
304 304 303 302 301 299 299 299 299 299 299 298 299 299 300 300 299 299 298 296 295 295 294 294 294 294 293 293 293 293 294 294 295 296 297 297 300 302 302 303 303 303 301
305 306 303 301 300 299 299 299 299 299 298 298 299 299 299 299 298 297 295 295 295 294 294 293 293 293 293 293 293 293 294 294 296 296 297 298 300 301 304 305 304 302 300
306 306 303 300 302 299 299 299 299 299 298 298 299 299 299 298 296 295 294 294 294 293 293 293 293 292 293 293 293 294 294 294 296 296 297 297 298 300 302 303 303 300 300
303 302 300 302 299 300 299 299 299 298 298 298 299 299 298 296 295 294 294 294 293 293 293 293 292 292 292 293 293 294 294 294 295 295 296 295 297 298 299 302 301 301 299
304 301 300 301 301 299 299 299 299 298 297 299 299 298 297 296 294 294 294 294 293 293 293 293 292 292 293 293 293 293 293 293 294 294 295 296 297 297 297 297 296 296 296
302 300 304 302 299 299 299 299 298 297 298 298 298 298 296 295 294 294 294 293 293 293 292 292 291 291 293 292 292 292 293 293 293 293 294 295 296 296 295 295 296 297 297
304 304 300 299 299 299 299 299 298 297 298 298 298 297 296 295 294 294 294 293 294 293 292 292 290 291 292 291 291 292 292 293 294 294 294 294 295 295 295 296 297 298 297
302 299 299 299 299 299 299 298 298 298 297 297 297 297 296 294 294 294 293 293 293 293 293 291 291 292 290 289 290 291 291 292 293 293 294 294 294 294 294 295 296 296 295
299 299 299 299 299 299 298 298 297 296 296 296 296 295 294 294 294 292 292 293 293 292 291 291 292 291 290 290 290 290 290 291 292 293 293 292 293 293 293 293 293 294 294
Wind_Speed
14 15 18 19 21 22 22 24 25 24 25 24 21 18 15 12 8 7 8 10 12 14 15 17 20 23 24 26 28 29 30 34 33 35 39 41 45 42 50 49 45 46 46
17 17 18 18 20 21 23 22 21 21 21 21 20 18 15 13 9 8 6 6 7 10 13 16 18 20 22 24 25 26 28 30 32 29 33 31 34 36 44 47 52 51 49
23 20 19 18 20 21 22 22 21 23 22 21 18 17 15 11 9 7 7 9 12 15 18 21 24 26 28 30 30 30 30 32 31 30 25 18 18 20 28 34 44 53 51
24 23 23 24 24 25 24 26 26 26 24 21 18 14 9 5 5 8 10 12 15 18 20 23 26 29 32 35 36 36 37 36 38 36 37 36 39 28 26 27 34 41 51
31 30 29 28 27 28 29 28 26 23 20 16 10 6 3 3 6 10 13 16 19 21 24 26 29 31 34 36 37 39 41 43 42 37 32 34 35 39 44 31 32 38 49
32 32 32 31 29 27 26 24 20 17 13 9 6 3 3 7 10 14 18 21 22 23 24 27 30 32 35 37 39 40 42 42 38 38 34 33 29 28 34 35 37 30 40
36 39 39 36 34 30 26 22 18 15 11 8 4 3 7 11 15 18 20 23 25 28 29 31 33 35 37 39 41 41 41 40 36 36 39 40 40 35 35 35 40 37 35
39 42 40 38 34 31 27 22 18 14 11 6 3 7 11 14 18 20 22 25 28 31 32 34 36 37 38 38 38 39 40 39 37 38 40 42 41 37 38 38 36 37 34
40 44 41 39 36 32 27 22 19 14 10 7 6 10 13 17 19 21 24 28 30 33 35 37 38 37 37 35 33 32 34 34 36 41 43 43 48 42 41 39 42 41 36
37 43 43 41 37 32 27 23 18 14 9 8 8 12 16 18 20 23 27 30 32 34 36 37 37 37 36 33 31 31 32 35 37 39 40 44 44 43 42 44 45 43 46
45 47 45 41 35 31 27 23 18 13 9 8 12 15 17 20 23 28 30 32 34 35 35 36 37 37 34 32 36 38 38 40 42 44 44 44 41 46 45 45 48 48 43
40 46 46 41 37 32 27 22 16 11 9 11 14 17 19 23 27 29 30 32 33 32 33 35 35 33 35 34 32 35 36 37 38 40 41 43 42 44 42 42 51 46 47
36 44 44 41 36 31 26 20 14 10 10 13 16 19 22 25 28 29 30 31 32 33 33 33 31 32 32 32 33 32 35 37 39 41 45 46 43 47 48 47 48 42 49
41 44 43 40 35 30 23 17 12 10 11 14 16 19 24 28 29 29 30 30 30 32 32 32 31 29 30 31 31 32 32 34 37 40 40 41 41 43 47 48 48 44 49
39 46 45 40 35 29 22 16 10 8 11 13 16 21 26 27 28 28 28 29 30 30 29 28 26 28 29 30 30 32 33 35 37 37 36 36 37 39 40 43 46 46 43
37 38 40 37 34 26 19 13 8 8 10 13 18 23 24 26 26 26 27 28 28 26 24 23 25 27 28 28 28 28 30 32 31 32 33 33 34 35 36 36 41 47 44
38 42 38 36 29 23 17 11 7 8 11 15 20 21 23 24 24 25 26 26 24 22 21 21 23 24 24 24 25 26 25 26 27 27 30 34 35 34 31 32 34 40 43
45 41 37 33 25 20 15 8 8 9 11 16 18 20 23 22 22 23 23 22 20 19 20 20 21 21 21 24 23 22 22 21 22 25 29 32 31 29 34 31 29 34 43
45 38 38 30 25 18 13 10 9 9 12 16 18 21 21 21 21 22 21 18 16 16 16 18 19 20 20 23 22 22 20 21 24 23 25 28 26 33 20 8 10 25 36
47 41 38 32 20 20 15 11 10 9 14 16 17 19 20 19 19 19 17 13 13 13 14 15 17 18 17 20 23 22 20 18 20 21 21 18 21 25 19 5 7 25 33
43 41 36 27 24 17 16 12 8 9 14 14 16 17 17 16 17 15 12 9 10 10 11 13 14 15 17 19 22 24 23 20 14 20 21 19 18 17 9 9 19 26 36
41 39 35 24 26 21 13 9 7 11 12 13 14 14 13 14 14 11 8 7 7 8 10 11 13 14 16 20 21 23 24 22 17 15 18 18 16 15 12 11 16 25 27
44 35 26 32 26 18 12 9 8 10 11 12 11 11 10 11 9 7 5 6 6 8 9 12 14 16 19 19 19 19 20 20 23 19 13 13 18 17 15 14 16 18 20
35 33 36 29 21 17 13 9 7 9 10 9 9 7 7 7 5 4 4 5 6 6 8 11 12 16 18 19 18 17 16 16 17 19 20 18 16 19 20 18 18 18 19
38 35 28 23 20 17 13 8 7 8 8 7 6 5 5 4 2 3 5 5 5 6 6 9 12 17 20 19 17 17 15 15 15 15 16 20 21 21 18 15 14 13 14
34 30 25 22 20 16 10 7 6 6 6 5 4 2 2 1 1 2 4 5 5 5 7 7 12 16 15 14 15 15 14 12 11 15 21 23 23 23 22 20 18 16 17
Wind_Direction
213 209 214 213 211 211 215 214 210 206 199 198 197 200 199 193 198 209 218 233 243 253 261 264 274 274 276 275 277 278 276 277 282 287 283 286 271 270 256 258 251 249 245
212 215 216 213 214 212 208 207 200 189 188 194 190 193 182 172 177 177 196 228 253 263 271 276 278 280 283 284 283 284 288 287 285 280 287 283 281 275 265 260 256 248 244
202 202 202 201 199 198 195 191 181 175 179 181 174 164 162 169 186 222 260 281 288 289 287 287 290 292 290 289 288 286 284 283 284 282 270 273 269 280 276 272 259 253 243
197 188 179 172 169 166 163 159 156 156 154 157 165 171 182 204 252 278 290 295 294 290 288 286 284 283 283 286 286 285 283 282 278 278 273 267 264 266 275 266 256 251 250
196 181 168 159 156 153 152 154 154 157 159 165 169 177 203 257 289 303 304 301 298 294 293 289 286 284 283 285 287 286 282 277 274 269 264 267 263 262 258 264 263 247 244
189 180 172 167 165 164 163 162 161 159 158 162 174 209 299 316 313 308 305 301 298 296 295 293 292 293 292 290 288 286 285 283 272 269 263 257 255 255 256 259 264 265 248
187 182 179 175 173 172 170 167 167 167 170 178 196 291 311 310 312 308 306 306 307 308 307 301 298 294 291 289 288 286 283 281 277 270 260 260 261 262 258 256 258 257 261
189 186 183 178 176 175 175 174 175 180 181 191 243 295 303 308 307 307 307 307 308 308 307 303 299 298 296 293 288 285 282 277 270 265 259 261 262 263 265 261 257 254 252
186 186 183 181 179 180 181 182 182 186 192 215 264 293 302 304 305 305 307 308 310 309 307 308 307 306 305 300 292 286 282 279 271 269 268 267 267 264 263 260 262 252 248
182 185 183 181 181 184 184 184 188 193 210 242 279 291 300 303 307 311 313 312 311 311 311 308 306 303 302 301 302 291 280 280 277 274 274 272 268 266 266 266 263 253 243
183 184 183 182 185 187 188 189 191 201 224 259 283 298 304 308 312 314 314 313 313 312 310 307 304 304 302 297 298 296 291 287 283 278 278 272 265 267 263 262 261 258 244
180 182 182 183 186 189 190 192 199 214 244 276 295 303 309 313 315 315 315 314 314 313 312 312 310 309 307 300 287 290 287 284 284 282 280 275 272 269 264 260 249 256 249
177 180 182 186 188 190 192 196 208 230 264 289 300 306 311 314 314 315 316 316 314 314 314 315 313 315 312 306 301 295 289 286 282 280 277 278 276 273 270 265 258 251 249
179 182 185 189 191 194 195 203 217 247 279 293 300 307 314 315 315 315 314 315 316 316 315 313 313 313 313 312 308 303 299 293 291 288 285 282 278 273 269 263 259 252 250
181 187 188 190 190 190 196 205 224 258 282 294 303 313 314 314 314 314 317 320 321 322 321 322 322 323 320 317 313 307 304 300 297 295 294 291 287 280 272 265 254 248 242
183 187 189 191 189 192 197 203 226 263 287 303 310 311 315 313 317 320 323 324 326 327 329 332 330 328 326 322 318 312 310 306 303 301 299 302 301 294 289 268 252 243 236
181 188 194 191 191 192 197 204 233 271 298 305 309 311 314 320 323 325 326 329 332 336 336 336 331 332 331 328 329 324 316 313 309 309 311 307 299 298 294 284 267 244 233
187 191 198 193 188 192 193 208 245 276 296 307 309 315 323 327 326 326 328 332 339 344 341 341 339 338 341 340 337 327 328 330 336 331 325 319 316 321 318 295 268 245 222
196 194 200 189 188 193 201 213 251 270 302 308 317 324 327 332 329 332 336 342 348 347 345 350 349 345 348 349 351 348 347 355 351 339 334 327 323 337 348 295 233 222 210
201 194 192 186 192 201 198 218 240 277 311 316 322 329 334 333 332 335 341 350 350 353 357 4 359 350 355 1 5 4 358 5 9 8 1 345 335 345 343 242 157 173 183
185 184 179 187 189 205 206 221 251 298 316 319 326 331 331 333 333 341 349 354 354 358 10 14 8 6 10 12 14 14 12 11 1 16 19 14 359 9 357 197 175 176 174
183 178 178 183 205 199 208 230 270 307 310 318 324 329 333 338 344 350 353 352 5 14 23 24 22 26 25 23 24 26 29 26 26 32 34 34 31 26 34 101 130 144 148
174 174 195 198 194 199 213 235 269 302 309 321 325 331 340 344 350 353 357 17 19 24 29 27 27 31 33 30 27 28 30 29 32 35 40 52 57 63 74 104 121 126 132
173 187 190 189 194 203 214 233 279 302 312 316 321 333 343 344 0 343 34 29 29 32 37 34 27 31 35 35 31 31 34 34 37 44 55 64 73 80 90 98 112 123 136
179 182 183 192 201 204 217 244 281 295 310 314 322 340 336 341 9 29 67 54 48 42 36 55 49 45 43 32 24 25 33 36 46 60 63 68 72 77 84 92 99 109 127
174 178 188 196 197 204 218 246 266 283 318 319 318 350 327 2 89 68 73 78 74 58 64 62 53 47 44 37 37 39 39 48 63 79 77 75 75 78 83 89 100 114 127